Showing default

LONGJIANG 3, 56874

Orbit data source: Space-Track

LONGJIANG 3, 56874 is a payload satellite owned by Harbin (CN) in LEO that was launched on Fri, 09 Jun 2023 UTC via a KUAIZHOU-1A launch vehicle from the Jiuquan Satellite Launch Center, China (JSC). Payload-class satellites include a variety of spacecraft equipped with specific instruments for various scientific and technological missions. These include communications satellites like Starlink; space stations such as the ISS; scientific satellites like the Hubble; Earth observation satellites from companies like Planet Labs, Umbra, and HawkEye 360; GPS; miniature CubeSats for education and research; and military/defense satellites.

Loading next visibility...
Identifier
56874, 2023-082A
Orbit
LEO
Country
Flag of CNCN / PRC
Related business
Manufacturer
HITSAT
Mission
Operational Amateur Communications
Bus & Motor
SATWARE-CS200, Unknown motor
Mass
~120 kg wet, ~120 kg dry
Launch date (UTC)
2023-06-09 (3 years ago)
Launch vehicle
KUAIZHOU-1A
Launch site
Jiuquan Satellite Launch Center, China (JSC)
Object type
Payload
Rocket body
Debris
Shape & HBR
Box, 0.8 m
Radar Cross Section
2.000 m², Large (>1 m²)

Expand to show TLE details & history
Last TLE update: 23 hours ago

TLE from 23 hours ago
0 LONGJIANG 3
1 56874U 23082A   26172.50187144  .00017050  00000-0  39327-3 0  9993
2 56874  49.1093  22.7636 0003841  61.7923 298.3415 15.42583664170035
Epoch: 2026-06-21T12:02Z
TLE epoch observation values (Epoch: 2026-06-21T12:02:41.692Z)
Latitude
-0.00001°
Longitude
-67.61135°
Altitude
437.704 km
Speed
7.651 km/s
True Right ascension
01h 31m 03s
True Declination
0° 00' 00"
Sunlit
Object was in daylight at epoch
Visualization orbit readout
Latitude
Unknown
Longitude
Unknown
Altitude
Unknown
Speed
Unknown
Apparent Right ascension
Unknown
Apparent Declination
Unknown
Sunlit
N/A
Visualization observer readout
Local Sidereal Time
21:43:17
Azimuth
Unknown
Elevation
Unknown
Doppler factor
Unknown
Orbital elements
Apogee altitude
442.033 km
Perigee altitude
436.795 km
Semi-major axis
6,817.551 km
Eccentricity
0.00038
Inclination
49.1093°
RAAN
22.7636°
Arg. of periapsis
61.7923°
True anomaly
298.30275°
Mean anomaly
298.3415°
Eccentric anomaly
298.32213°
Mean motion
3.85568 °/min
Orbital period
93.37 mins
BSTAR
0.00039327
Loading maneuver chart data...
Computing Atmospheric mass density...
Loading historical data...
Loading historical data...
Loading historical data...
Loading historical data...
Loading historical data...
Loading historical data...
Loading historical data...
Other satellites on launch #82 in the year 2023 (2023-06-09 UTC)

Documentation

Showing up to 5 results
|